Regional Weather Roundup
Issued by NWS

Home | Current Version | Previous Version | Text Only | Print | Product List | Glossary Off
Versions: 1 2 3 4 5 6 7 8 9 10 11 12 13 14 15 16 17 18 19 20 21 22 23 24 25 26 27 28 29 30 31 32 33 34 35 36 37 38 39 40 41 42 43 44 45 46 47 48 49 50

000
ASUS45 KABQ 221501
RWRNM
WEATHER ROUNDUP FOR NEW MEXICO
NATIONAL WEATHER SERVICE ALBUQUERQUE NM
900 AM MDT MON SEP 22 2014

NOTE: "FAIR" MEANS FEW OR NO CLOUDS BELOW 12,000 FEET AGL WITH NO
       SIGNIFICANT WEATHER OR OBSTRUCTIONS TO VISION.

      THIS PRODUCT IS RELEASED AS TWO VERSIONS.  ONE VERSION NEAR
      THE TOP OF THE HOUR CONTAINING PRELIMINARY DATA FROM ALBUQUERQUE
      AND OTHER STATIONS.  A FINAL VERSION WITH ADDITIONAL DATA IS
      ISSUED ABOUT 10 MINUTES AFTER THE HOUR.

NMZ501-503-504-510>518-221600-
NORTHWEST PLATEAU/NORTHCENTRAL MOUNTAINS

CITY           SKY/WX    TMP DP  RH WIND       PRES   REMARKS
FARMINGTON     CLOUDY    65  56  72 E9        30.28R
LOS ALAMOS     DRIZZLE   56  56 100 S10       30.43S
SANTA FE       CLOUDY    62  55  77 SE12      30.38S
TAOS           CLOUDY    59  52  77 CALM      30.42S
ANGEL FIRE     CLOUDY    56  50  81 S9        30.49R

$$
NMZ402-403-502-505>509-221600-
WESTCENTRAL MOUNTAINS/SOUTHWEST MOUNTAINS

CITY           SKY/WX    TMP DP  RH WIND       PRES   REMARKS
GALLUP         CLOUDY    60  56  86 CALM      30.34R
GRANTS         MOSUNNY   63  55  77 SE9       30.38S
SILVER CITY    CLOUDY    64  63  94 CALM      30.31R

$$
NMZ407-409-411-412-221600-
SOUTHERN DESERTS

CITY           SKY/WX    TMP DP  RH WIND       PRES   REMARKS
LORDSBURG      CLOUDY    72  63  73 MISG      30.21R
DEMING         CLOUDY    69  65  86 E8        30.24R
LAS CRUCES     CLOUDY    69  64  84 SE8       30.27R
HOLLOMAN AFB   PTSUNNY   69  64  83 N5        30.24R
ALAMOGORDO     PTSUNNY   70  63  78 N6        30.26R
T OR C         CLOUDY    68  61  78 N6        30.27R

$$
NMZ519>523-221600-
CENTRAL VALLEYS/CENTRAL HIGHLANDS

CITY           SKY/WX    TMP DP  RH WIND       PRES   REMARKS
ALBUQUERQUE    PTSUNNY   67  57  70 E3        30.32S
DOUBLE EAGLE   PTSUNNY   64  54  68 CALM      30.35R
CLINES CORNERS LGT RAIN  57  56  96 S14       30.42S FOG
BELEN          CLOUDY    68  57  68 SE6       30.32R
SOCORRO        CLOUDY    68  60  75 CALM      30.29S

$$
NMZ524>526-539-540-221600-
SOUTHCENTRAL MOUNTAINS

CITY           SKY/WX    TMP DP  RH WIND       PRES   REMARKS
RUIDOSO        NOT AVBL

$$
NMZ527>531-221600-
NORTHEAST HIGHLANDS/NORTHEAST PLAINS

CITY           SKY/WX    TMP DP  RH WIND       PRES   REMARKS
LAS VEGAS      LGT RAIN  57  56  96 S15       30.42R
RATON          CLOUDY    60  59  96 S15       30.37S
CLAYTON        CLOUDY    60  54  80 S15       30.36R

$$
NMZ532>537-221600-
EASTCENTRAL PLAINS

CITY           SKY/WX    TMP DP  RH WIND       PRES   REMARKS
TUCUMCARI      CLOUDY    65  61  87 E3        30.32R
CANNON AFB     NOT AVBL
CLOVIS AIRPORT   N/A     61  59  94 SE12      30.37R VSB 1/2

$$
NMZ028-029-538-221600-
SOUTHEAST PLAINS

CITY           SKY/WX    TMP DP  RH WIND       PRES   REMARKS
ROSWELL        CLOUDY    68  66  93 E9        30.27R
CARLSBAD       CLOUDY    69 N/A N/A SE9       30.25R
HOBBS          CLOUDY    66  66 100 E12       30.30R FOG


$$


USA.gov is the U.S. government's official web portal to all federal, state and local government web resources and services.